Andalusia, AL

3:38 AM CST on November 12, 2019 (GMT -0600)
Andalusia

Weather History for K79J - October, 2019

Change the Weather History Date:

Tuesday, October 22, 2019

  Actual Average (WUND) Record (WUND)
Temperature  
Mean Temperature 66 °F -  
Max Temperature 77 °F - - (-1)
Min Temperature 55 °F - - (-1)
Cooling Degree Days 1    
Growing Degree Days 16 (Base 50)    
Moisture  
Dew Point 58 °F    
Average Humidity 69    
Maximum Humidity 88    
Minimum Humidity 26    
Precipitation  
Precipitation 0.01 in - - ()
Sea Level Pressure  
Sea Level Pressure 29.99 in    
Wind  
Wind Speed 6 mph ()    
Max Wind Speed 20 mph    
Max Gust Speed 36 mph    
Visibility 9.9 miles    
Events Rain    
Averages and records for this station are not official NWS values.
T = Trace of Precipitation, MM = Missing Value Source: Averaged Metar Reports

Daily Weather History Graph

Daily Weather History Graph

Search for Another Location

Airport or City:

Astronomy

Oct. 22, 2019 Rise Set
Actual Time 6:53 AM CDT 6:06 PM CDT
Civil Twilight 6:28 AM CDT 6:30 PM CDT
Nautical Twilight 6:00 AM CDT 6:59 PM CDT
Astronomical Twilight 5:32 AM CDT 7:27 PM CDT
Moon 12:34 AM CDT (10/22) 2:45 PM CDT (10/22)
Length of Visible Light 12h 02m
Length of Day
11h 12m
Last Quarter, 37% of the Moon is Illuminated
Oct 22
Last Quarter
Oct 27
New
Nov 4
First Quarter
Nov 12
Full
Nov 19
Last Quarter

Hourly Weather History & Observations

Time (CDT) Temp. Dew Point Humidity Pressure Visibility Wind Dir Wind Speed Gust Speed Precip Events Conditions
12:14 AM 73.0 °F 69.1 °F 87% 29.92 in 10.0 mi SSW 4.6 mph - N/A   Mostly Cloudy
12:23 AM 73.0 °F 69.1 °F 87% 29.92 in 10.0 mi SW 3.5 mph - N/A   Mostly Cloudy
12:56 AM 73.9 °F 69.1 °F 85% 29.92 in 10.0 mi WSW 4.6 mph - N/A   Overcast
1:21 AM 73.9 °F 70.0 °F 87% 29.92 in 10.0 mi Variable 4.6 mph - N/A   Overcast
1:47 AM 73.0 °F 69.1 °F 87% 29.92 in 10.0 mi South 3.5 mph - N/A   Overcast
1:56 AM 73.0 °F 69.1 °F 87% 29.91 in 10.0 mi Variable 3.5 mph - N/A   Overcast
2:20 AM 73.0 °F 69.1 °F 87% 29.92 in 10.0 mi Variable 4.6 mph - N/A   Overcast
2:51 AM 73.4 °F 69.8 °F 88% 29.92 in 10.0 mi SW 3.5 mph - N/A   Overcast
2:56 AM 73.0 °F 69.1 °F 87% 29.91 in 10.0 mi SSW 3.5 mph - N/A   Overcast
3:05 AM 73.0 °F 69.1 °F 87% 29.90 in 10.0 mi Calm Calm - N/A   Mostly Cloudy
3:56 AM 73.0 °F 69.1 °F 87% 29.88 in 10.0 mi SSW 4.6 mph - N/A   Mostly Cloudy
4:09 AM 73.0 °F 69.1 °F 87% 29.90 in 10.0 mi SW 6.9 mph - N/A   Overcast
4:56 AM 73.0 °F 69.1 °F 87% 29.91 in 10.0 mi WSW 5.8 mph - N/A   Overcast
5:10 AM 73.0 °F 69.1 °F 87% 29.93 in 10.0 mi WSW 4.6 mph - N/A   Overcast
5:33 AM 68.0 °F 61.0 °F 78% 29.97 in 7.0 mi NW 19.6 mph 35.7 mph 0.01 in Rain Light Rain
5:44 AM 66.0 °F 59.0 °F 78% 29.97 in 10.0 mi NW 11.5 mph 24.2 mph 0.01 in Rain Light Rain
5:56 AM 66.9 °F 61.0 °F 81% 29.96 in 10.0 mi NW 8.1 mph - 0.01 in   Overcast
6:13 AM 66.9 °F 61.0 °F 81% 29.98 in 10.0 mi NW 8.1 mph - N/A   Overcast
6:56 AM 66.9 °F 61.0 °F 81% 29.99 in 10.0 mi NW 10.4 mph - N/A   Overcast
7:56 AM 66.9 °F 60.1 °F 79% 30.01 in 10.0 mi NW 11.5 mph 19.6 mph N/A   Overcast
8:56 AM 66.9 °F 57.9 °F 73% 30.05 in 10.0 mi NW 8.1 mph - N/A   Overcast
9:56 AM 69.1 °F 54.0 °F 58% 30.06 in 10.0 mi NNW 13.8 mph - N/A   Overcast
10:56 AM 73.0 °F 46.9 °F 39% 30.05 in 10.0 mi NNW 12.7 mph - N/A   Partly Cloudy
11:56 AM 77.0 °F 41.0 °F 28% 30.05 in 10.0 mi NNW 15.0 mph - N/A   Clear
12:56 PM 75.9 °F 43.0 °F 31% 30.03 in 10.0 mi NNW 16.1 mph - N/A   Clear
1:56 PM 75.9 °F 39.0 °F 26% 30.01 in 10.0 mi NW 17.3 mph 23.0 mph N/A   Clear
2:56 PM 77.0 °F 39.9 °F 26% 30.01 in 10.0 mi NW 13.8 mph 19.6 mph N/A   Clear
3:56 PM 75.0 °F 37.9 °F 26% 30.02 in 10.0 mi NNW 6.9 mph - N/A   Clear
4:56 PM 73.0 °F 39.0 °F 29% 30.03 in 10.0 mi NW 6.9 mph - N/A   Clear
5:56 PM 69.1 °F 44.1 °F 40% 30.05 in 10.0 mi West 3.5 mph - N/A   Clear
6:56 PM 63.0 °F 48.0 °F 58% 30.06 in 10.0 mi WNW 3.5 mph - N/A   Clear
7:56 PM 62.1 °F 48.0 °F 60% 30.08 in 10.0 mi Calm Calm - N/A   Clear
8:56 PM 57.9 °F 48.9 °F 72% 30.10 in 8.0 mi Calm Calm - N/A   Clear
9:56 PM 55.9 °F 48.0 °F 75% 30.12 in 10.0 mi Calm Calm - N/A   Clear
10:56 PM 57.0 °F 46.9 °F 69% 30.12 in 10.0 mi North - - N/A   Clear